Location: Pedholt
(56.0260°N, 10.2097°E)
Time: 20:30:13
(UTC+00:00)

SR - Pass Details

Date: 05 August 2021
Orbit: 581 x 873 km, 66.7° (Epoch: 27 September)

Event Time Altitude Azimuth Distance (km) Brightness Sun altitude
Rises 09:00:30 0° 293° (WNW) 3,307 ? 42.2°
Reaches altitude 10° 09:03:26 10° 306° (NW) 2,325 ? 42.6°
Maximum altitude 09:07:47 25° 2° (N) 1,463 ? 43.0°
Drops below altitude 10° 09:11:52 10° 57° (ENE) 2,161 ? 43.4°
Sets 09:14:29 0° 71° (ENE) 3,025 ? 43.7°
